Change the Weather History Date:

Thursday, March 28, 2013

  Actual Average (KYKM) Record (KYKM)
Temperature  
Mean Temperature 48 °F 46 °F  
Max Temperature 62 °F 60 °F 77 °F (1994)
Min Temperature 36 °F 32 °F 18 °F (1954)
Degree Days  
Heating Degree Days 16 19  
Month to date heating degree days 619  
Since 1 July heating degree days 5146  
Cooling Degree Days 0 0  
Month to date cooling degree days 0  
Year to date cooling degree days 0  
Moisture  
Dew Point 35 °F    
Average Humidity 64    
Maximum Humidity 83    
Minimum Humidity 39    
Precipitation  
Precipitation 0.02 in 0.01 in 0.24 in (1955)
Month to date precipitation 0.57  
Year to date precipitation 2.49  
Snow  
Snow 0.00 in 0.00 in 0.50 in (2008)
Month to date snowfall 0.7  
Year to date snowfall 8.6  
Since 1 July snowfall 21.6  
Snow Depth -    
Sea Level Pressure  
Sea Level Pressure 30.06 in    
Wind  
Wind Speed 3 mph (NNW)    
Max Wind Speed 12 mph    
Max Gust Speed -    
Visibility 10 miles    
Events Rain    
T = Trace of Precipitation, MM = Missing Value Source: NWS Daily Summary

Daily Weather History Graph

Daily Weather History Graph

Search for Another Location

Airport or City:

Trip Planner

Search our weather history database for the weather conditions in past years. The results will help you decide how hot, cold, wet, or windy it might be!

Date:

Astronomy

Mar. 28, 2013 Rise Set
Actual Time 6:48 AM PDT 7:26 PM PDT
Civil Twilight 6:17 AM PDT 7:57 PM PDT
Nautical Twilight 5:41 AM PDT 8:33 PM PDT
Astronomical Twilight 5:03 AM PDT 9:11 PM PDT
Moon 9:34 PM PDT (3/28) 7:12 AM PDT (3/28)
Length of Visible Light 13h 39m
Length of Day
12h 38m
Full, 98% of the Moon is Illuminated
Mar 28
Full
Apr 2
Last Quarter
Apr 10
New
Apr 18
First Quarter
Apr 25
Full

Hourly Weather History & Observations

Time (PDT) Temp. Windchill Dew Point Humidity Pressure Visibility Wind Dir Wind Speed Gust Speed Precip Events Conditions
12:53 AM 39.9 °F 37.8 °F 32.0 °F 73% 30.01 in 10.0 mi North 3.5 mph - N/A   Overcast
1:53 AM 39.0 °F - 32.0 °F 76% 30.02 in 10.0 mi Calm Calm - N/A   Mostly Cloudy
2:53 AM 39.0 °F - 32.0 °F 76% 30.02 in 10.0 mi Calm Calm - N/A   Partly Cloudy
3:53 AM 36.0 °F - 30.0 °F 79% 30.04 in 10.0 mi Calm Calm - N/A   Partly Cloudy
4:53 AM 37.9 °F - 33.1 °F 83% 30.03 in 10.0 mi Calm Calm - 0.00 in   Overcast
5:53 AM 37.0 °F 34.5 °F 32.0 °F 82% 30.03 in 9.0 mi North 3.5 mph - N/A   Overcast
6:53 AM 37.0 °F 32.4 °F 32.0 °F 82% 30.04 in 10.0 mi North 5.8 mph - N/A   Scattered Clouds
7:53 AM 41.0 °F - 35.1 °F 79% 30.07 in 10.0 mi Calm Calm - N/A   Overcast
8:53 AM 41.0 °F - 34.0 °F 76% 30.08 in 10.0 mi Calm Calm - N/A   Scattered Clouds
9:53 AM 44.1 °F - 36.0 °F 73% 30.09 in 10.0 mi Calm Calm - N/A   Mostly Cloudy
10:53 AM 48.9 °F - 37.0 °F 64% 30.09 in 10.0 mi Calm Calm - N/A   Scattered Clouds
11:53 AM 55.9 °F - 37.9 °F 51% 30.07 in 10.0 mi Calm Calm - N/A   Clear
12:53 PM 59.0 °F - 39.0 °F 48% 30.06 in 10.0 mi Calm Calm - N/A   Clear
1:53 PM 61.0 °F - 37.0 °F 41% 30.05 in 10.0 mi SSE 3.5 mph - N/A   Scattered Clouds
2:53 PM 60.1 °F - 36.0 °F 41% 30.04 in 10.0 mi Calm Calm - N/A   Overcast
3:53 PM 61.0 °F - 37.0 °F 41% 30.03 in 10.0 mi Calm Calm - N/A   Overcast
4:53 PM 61.0 °F - 36.0 °F 39% 30.04 in 10.0 mi Calm Calm - N/A   Overcast
5:53 PM 55.9 °F - 39.0 °F 53% 30.05 in 8.0 mi West 10.4 mph - 0.01 in Rain Light Rain
6:53 PM 57.0 °F - 41.0 °F 55% 30.05 in 10.0 mi Calm Calm - 0.01 in   Overcast
7:53 PM 51.1 °F - 37.9 °F 61% 30.06 in 10.0 mi NNW 11.5 mph - N/A   Overcast
8:53 PM 50.0 °F - 37.0 °F 61% 30.08 in 10.0 mi NNW 11.5 mph - N/A   Scattered Clouds
9:53 PM 48.0 °F - 36.0 °F 63% 30.10 in 10.0 mi NW 9.2 mph - N/A   Scattered Clouds
10:53 PM 45.0 °F 40.1 °F 35.1 °F 68% 30.11 in 10.0 mi WNW 9.2 mph - N/A   Scattered Clouds
11:53 PM 43.0 °F 37.7 °F 35.1 °F 74% 30.12 in 10.0 mi WNW 9.2 mph - N/A   Clear